Location: Wanzleben
(52.0609°N, 11.4408°E)
Time: 06:36:56
(UTC+00:00)

H-2A R/B - Pass Details

Date: 18 September 2020
Orbit: 734 x 836 km, 98.2° (Epoch: 21 October)

Event Time Altitude Azimuth Distance (km) Brightness Sun altitude
Rises 19:14:59 0° 198° (SSW) 3,165 5.1 -17.6°
Reaches altitude 10° 19:17:34 10° 210° (SSW) 2,256 4.5 -18.0°
Maximum altitude 19:21:45 27° 268° (W) 1,433 4.0 -18.6°
Drops below altitude 10° 19:26:02 10° 325° (NW) 2,315 5.4 -19.1°
Sets 19:28:44 0° 338° (NNW) 3,264 6.1 -19.5°
